Baton Rouge, LA

4:32 AM CDT on August 29, 2016 (GMT -0500)
Baton Rouge Metro-Ryan

Weather History for KBTR - August, 2012

Change the Weather History Date:

Wednesday, August 15, 2012

  Actual Average Record
Temperature  
Mean Temperature 86 °F 83 °F  
Max Temperature 94 °F 93 °F 98 °F (1951)
Min Temperature 77 °F 74 °F 58 °F (2004)
Degree Days  
Heating Degree Days 0 0  
Month to date heating degree days 0 0  
Since 1 June heating degree days 0 0  
Since 1 July heating degree days 0 0  
Cooling Degree Days 21 18  
Month to date cooling degree days 293 270  
Year to date cooling degree days 2142 1875  
Since 1 June cooling degree days 1329 1310  
Growing Degree Days 34 (Base 50)    
Moisture  
Dew Point 75 °F    
Average Humidity 73    
Maximum Humidity 94    
Minimum Humidity 52    
Precipitation  
Precipitation 0.00 in 0.19 in 2.82 in (1985)
Month to date precipitation 1.47 2.90  
Year to date precipitation 39.34 38.79  
Snow  
Snow 0.00 in - - ()
Month to date snowfall 0.0  
Since 1 June snowfall 0.0  
Since 1 July snowfall 0.0  
Snow Depth 0.00 in    
Sea Level Pressure  
Sea Level Pressure 29.96 in    
Wind  
Wind Speed 6 mph (West)    
Max Wind Speed 13 mph    
Max Gust Speed 16 mph    
Visibility 10 miles    
Events      
T = Trace of Precipitation, MM = Missing Value Source: NWS Daily Summary

Daily Weather History Graph

Daily Weather History Graph

Search for Another Location

Airport or City:

Trip Planner

Search our weather history database for the weather conditions in past years. The results will help you decide how hot, cold, wet, or windy it might be!

Date:

Astronomy

Aug. 15, 2012 Rise Set
Actual Time 6:31 AM CDT 7:45 PM CDT
Civil Twilight 6:06 AM CDT 8:11 PM CDT
Nautical Twilight 5:36 AM CDT 8:41 PM CDT
Astronomical Twilight 5:05 AM CDT 9:12 PM CDT
Moon 4:32 AM CDT (8/15) 6:17 PM CDT (8/15)
Length of Visible Light 14h 04m
Length of Day
13h 14m
Waning Crescent, 4% of the Moon is Illuminated
Aug 15
Waning Crescent
Aug 17
New
Aug 24
First Quarter
Aug 31
Full
Sep 8
Last Quarter

Hourly Weather History & Observations

Time (CDT) Temp. Heat Index Dew Point Humidity Pressure Visibility Wind Dir Wind Speed Gust Speed Precip Events Conditions
12:53 AM 81.0 °F 87.3 °F 75.9 °F 85% 29.92 in 10.0 mi WSW 6.9 mph - N/A   Clear
1:53 AM 79.0 °F - 75.9 °F 90% 29.93 in 10.0 mi West 4.6 mph - N/A   Clear
2:53 AM 79.0 °F - 75.9 °F 90% 29.92 in 10.0 mi SW 8.1 mph - N/A   Clear
3:53 AM 78.1 °F - 75.9 °F 93% 29.92 in 10.0 mi WSW 5.8 mph - N/A   Clear
4:53 AM 78.1 °F - 75.9 °F 93% 29.93 in 10.0 mi WSW 4.6 mph - N/A   Clear
5:53 AM 77.0 °F - 75.9 °F 96% 29.94 in 10.0 mi West 3.5 mph - N/A   Clear
6:53 AM 77.0 °F - 75.9 °F 96% 29.96 in 10.0 mi Calm Calm - N/A   Clear
7:53 AM 81.0 °F 88.6 °F 78.1 °F 91% 29.99 in 10.0 mi WSW 5.8 mph - N/A   Partly Cloudy
8:53 AM 82.9 °F 91.8 °F 77.0 °F 82% 30.01 in 10.0 mi West 6.9 mph - N/A   Partly Cloudy
9:53 AM 84.9 °F 95.3 °F 77.0 °F 77% 30.02 in 10.0 mi West 6.9 mph - N/A   Scattered Clouds
10:12 AM 84.2 °F 94.1 °F 77.0 °F 79% 30.02 in 10.0 mi NW 5.8 mph - N/A   Mostly Cloudy
10:45 AM 87.8 °F 99.7 °F 77.0 °F 70% 30.02 in 10.0 mi WNW 9.2 mph - N/A   Scattered Clouds
10:53 AM 87.1 °F 98.8 °F 77.0 °F 72% 30.02 in 10.0 mi WNW 10.4 mph - N/A   Mostly Cloudy
11:24 AM 87.8 °F 97.6 °F 75.2 °F 66% 30.01 in 10.0 mi West 6.9 mph - N/A   Scattered Clouds
11:53 AM 90.0 °F 101.3 °F 75.9 °F 63% 30.01 in 10.0 mi WNW 6.9 mph - N/A   Scattered Clouds
12:53 PM 91.0 °F 98.2 °F 72.0 °F 53% 29.99 in 10.0 mi North 5.8 mph - N/A   Partly Cloudy
1:53 PM 91.0 °F 98.2 °F 72.0 °F 53% 29.97 in 10.0 mi Calm Calm - N/A   Mostly Cloudy
2:53 PM 91.9 °F 99.5 °F 72.0 °F 52% 29.95 in 10.0 mi SW 5.8 mph - N/A   Partly Cloudy
3:53 PM 91.9 °F 100.7 °F 73.0 °F 54% 29.93 in 10.0 mi West 8.1 mph - N/A   Scattered Clouds
4:53 PM 91.9 °F 99.5 °F 72.0 °F 52% 29.93 in 10.0 mi NW 5.8 mph - N/A   Scattered Clouds
5:53 PM 89.1 °F 99.1 °F 75.0 °F 63% 29.92 in 10.0 mi West 8.1 mph - N/A   Partly Cloudy
6:53 PM 88.0 °F 96.5 °F 73.9 °F 63% 29.92 in 10.0 mi West 5.8 mph - N/A   Clear
7:53 PM 84.9 °F 93.3 °F 75.0 °F 72% 29.94 in 10.0 mi SW 6.9 mph - N/A   Clear
8:53 PM 84.0 °F 93.7 °F 77.0 °F 79% 29.95 in 10.0 mi SSW 4.6 mph - N/A   Clear
9:53 PM 82.0 °F 89.4 °F 75.9 °F 82% 29.96 in 10.0 mi West 4.6 mph - N/A   Clear
10:53 PM 82.9 °F 90.8 °F 75.9 °F 79% 29.97 in 10.0 mi SW 8.1 mph - N/A   Clear
11:53 PM 82.0 °F 89.4 °F 75.9 °F 82% 29.99 in 10.0 mi SW 8.1 mph - N/A   Clear